Preview of NWS' New Version of Forecast
This preview is not operational and should not be used for support decisions.

Regional Weather Roundup (RWR)

Issued by National Weather Service (NWS)

                            
000
ASUS45 KBOU 212210
RWRCO 

WEATHER ROUNDUP FOR COLORADO
NATIONAL WEATHER SERVICE DENVER/BOULDER CO
300 PM MST THU FEB 21 2019

NOTE: "FAIR" INDICATES FEW OR NO CLOUDS BELOW 12000 FEET WITH NO
SIGNIFICANT WEATHER AND/OR OBSTRUCTIONS TO VISIBILITY.

COZ001>005-013-030-031-212300-
...NORTHWEST COLORADO...
  
CITY           SKY/WX    TMP DP  RH WIND       PRES   REMARKS
CRAIG          PTSUNNY   27  14  58 N8        29.62S WCI  19          
HAYDEN         FAIR      23  14  68 SW7       29.62R WCI  15          
MEEKER         CLOUDY    36  10  34 CALM      29.57F                  
RANGELY        MOCLDY    28  20  75 NE15G21   29.62S WCI  16          
RABBIT EARS PA FAIR      19  10  68 SW3       29.54R                  
STEAMBOAT SPGS FAIR      29   9  42 CALM      29.59R                  
WALDEN         FAIR      12   3  67 CALM      29.61S                  
$$

COZ006>008-011-212300-
...WEST CENTRAL VALLEYS...
  
CITY           SKY/WX    TMP DP  RH WIND       PRES   REMARKS
GRAND JUNCTION FAIR      39  21  48 SE16      29.57F                  
MONTROSE       CLOUDY    33  17  51 N8        29.59F WCI  26          
EAGLE          FAIR      31  11  43 SW3       29.61F                  
RIFLE          CLOUDY    36  15  42 N3        29.57F                  
DELTA          CLOUDY    40  17  39 CALM      29.60S                  
NUCLA          PTSUNNY   34  18  51 S20G32    29.59R WCI  22          
$$

COZ017>023-064>068-212300-
...SOUTHWEST COLORADO...
  
CITY           SKY/WX    TMP DP  RH WIND       PRES   REMARKS
DURANGO        CLOUDY    28  22  78 E7        29.64S WCI  21          
CORTEZ         LGT SNOW  31  22  69 SE15G32   29.59F WCI  20          
PAGOSA SPRINGS CLOUDY    27  19  73 S7        29.66S WCI  19          
TELLURIDE      CLOUDY    23   9  54 S10G21    29.56R WCI  12          
WOLF CREEK PAS CLOUDY     9   7  92 S16G22    29.61R WCI  -9          
$$

COZ009-010-012-014-032>034-037-058>063-212300-
...CENTRAL COLORADO...
  
CITY           SKY/WX    TMP DP  RH WIND       PRES   REMARKS
ASPEN          FAIR      31   4  31 S18G28    29.53F WCI  19          
BUENA VISTA    FAIR      28  10  46 SE8       29.63R WCI  20          
COPPER MTN     CLOUDY    14   3  62 MISG      29.53R                  
BERTHOUD PASS  CLOUDY     7  -4  61 S16G23    29.54R WCI -11          
COTTONWOOD PAS CLOUDY    21  12  68 SE15G22   29.59R WCI   8          
GUNNISON       FAIR      25  11  55 CALM      29.60S                  
GRANBY         MOCLDY    17   1  48 CALM      29.59R                  
KREMMLING      FAIR      19   3  49 CALM      29.63S                  
LEADVILLE      FAIR      15   9  76 S18       29.55R WCI  -2          
MONARCH PASS   CLOUDY    10   7  85 MISG      29.66R                  
SALIDA         FAIR      33  11  41 S10       29.72R WCI  24          
SUNLIGHT       CLOUDY    14   9  79 E3        29.57S                  
WILKERSON PASS FAIR      19   3  49 W6G16     29.62R WCI  11          
$$

COZ069>075-212300-
...SAN LUIS VALLEY/SANGRE DE CRISTO MOUNTAINS...
  
CITY           SKY/WX    TMP DP  RH WIND       PRES   REMARKS
ALAMOSA        FAIR      29  18  63 S20G30    29.66R WCI  16          
DEL NORTE      PTSUNNY   24  15  68 E5        29.66R WCI  18          
LA VETA PASS   NOT AVBL                                               
SAGUACHE       FAIR      27  16  63 CALM      29.67S                  
$$

COZ035-036-038>040-212300-
...NORTHERN COLORADO FRONT RANGE...
  
CITY           SKY/WX    TMP DP  RH WIND       PRES   REMARKS
DENVER INTL AP PTSUNNY   32  12  43 NW6       29.72R WCI  26          
AURORA         MOSUNNY   32  10  40 NE6       29.72R WCI  26          
FRONT RANGE AP PTSUNNY   34  12  40 NW7       29.73R WCI  28          
ERIE MUNI ARPT FAIR      34  10  37 N6        29.79R WCI  29          
BOULDER MUN AP FAIR      34  10  37 NW5       29.73R WCI  30          
CENTENNIAL     PTSUNNY   32  10  40 NE5       29.70R WCI  27          
BROOMFIELD     MOSUNNY   32   9  37 N9        29.72  WCI  24          
FORT COLLINS   NOT AVBL                                               
LONGMONT       FAIR      37  12  34 NE5       29.75S                  
$$

COZ041-046-047-076>085-087-088-212300-
...PIKES PEAK/PALMER DIVIDE AND SOUTHERN FOOTHILLS...
  
CITY           SKY/WX    TMP DP  RH WIND       PRES   REMARKS
COLO. SPRINGS  FAIR      36  15  42 SE12      29.69R                  
A. F. ACADEMY  FAIR      33  15  47 SE13G23   29.66R WCI  23          
SCHRIEVER AFB  NOT AVBL                                               
CHEYENNE MTN   FAIR      31  14  50 SE9       29.61S WCI  23          
ELLICOTT         N/A    N/A N/A N/A S9G18     29.68R                  
FALCON         FAIR      35  11  37 S10       29.69R WCI  27          
FORT CARSON    FAIR      37  13  37 S10       29.67S                  
LIMON          FAIR      38  17  42 VRB6      29.72R                  
MONUMENT HILL  FAIR      30  16  55 SE14      29.68R WCI  20          
CANON CITY     FAIR      41  16  36 SE9G16    29.68S                  
WALSENBURG     NOT AVBL                                               
TRINIDAD       CLOUDY    43  14  31 S20G25    29.67R                  
$$

COZ042>045-048>051-090-091-212300-
...NORTHEAST COLORADO...
  
CITY           SKY/WX    TMP DP  RH WIND       PRES   REMARKS
GREELEY ARPT   FAIR      34  13  41 VRB3      29.76S                  
AKRON          FAIR      30  19  63 E14       29.78R WCI  19          
BURLINGTON     FAIR      36  26  67 E10       29.79R                  
WRAY           CLOUDY    32  23  69 E10       29.85R WCI  24          
YUMA           CLOUDY    30  21  69 E14       29.81R WCI  20          
STERLING       CLOUDY    32  19  59 E10       29.81R WCI  24          
HOLYOKE        CLOUDY    32  27  80 SE13      29.86R WCI  22          
FORT MORGAN      N/A     36  15  42 E14       29.77R                  
$$

COZ086-089-092>099-212300-
...SOUTHEAST COLORADO...
  
CITY           SKY/WX    TMP DP  RH WIND       PRES   REMARKS
PUEBLO         FAIR      42  19  39 VRB5      29.70S                  
LA JUNTA       FAIR      41  21  44 NE10      29.73R                  
LAMAR          FAIR      50  24  36 SE17G26   29.71F                  
SPRINGFIELD      N/A     50  14  23 S25G37    29.71S                  
$$